SCP
0 1 1 1 1 1 0 0 0 0 0 0 0 0 0 0 0 0 0 0 0 0 0 0 0 0 0 0 0 0 0 0 0 0 0 0 0 0 0 0 0 0 0
1 1 1 1 1 1 0 0 0 0 0 0 0 0 0 0 0 0 0 0 0 0 0 0 0 0 0 0 0 0 0 0 0 0 0 0 0 0 0 0 0 0 0
1 1 1 1 1 1 0 0 0 0 0 0 0 0 0 0 0 0 0 0 0 0 0 0 0 0 0 0 0 0 0 0 0 0 0 0 0 0 0 0 0 0 0
1 1 1 1 1 1 0 0 0 0 0 0 0 0 0 0 0 0 0 0 0 0 0 0 0 0 0 0 0 0 0 0 0 0 0 0 0 0 0 0 0 0 0
1 1 1 1 1 1 0 0 0 0 0 0 0 0 0 0 0 0 0 0 0 0 0 0 0 0 0 0 0 0 0 0 0 0 0 0 0 0 0 0 0 0 0
0 0 1 1 1 1 0 0 0 0 0 0 0 0 0 0 0 0 0 0 0 0 0 0 0 0 0 0 0 0 0 0 0 0 0 0 0 0 0 0 0 0 0
0 0 1 1 1 1 0 0 0 0 0 0 0 0 0 0 0 0 0 0 0 0 0 0 0 0 0 0 0 0 0 0 0 0 0 0 0 0 0 0 0 0 0
0 0 1 1 1 1 1 0 0 0 0 0 0 0 0 0 0 0 0 0 0 0 0 0 0 0 0 0 0 0 0 0 0 0 0 0 0 0 0 0 0 0 0
0 1 1 1 1 1 1 1 0 0 0 0 0 0 0 0 0 0 0 0 0 0 0 -0 0 0 0 0 0 0 0 0 0 0 0 0 0 0 0 0 0 0 0
0 1 1 1 1 1 1 1 0 0 0 0 0 0 0 0 0 0 0 0 0 0 0 0 0 0 0 0 0 0 0 0 0 0 0 0 0 0 0 0 0 0 0
0 0 1 1 1 0 0 0 0 0 0 0 0 0 0 0 0 0 0 0 0 0 0 0 0 0 0 0 0 0 0 0 0 0 0 0 0 0 0 0 0 0 0
0 0 0 0 0 0 0 0 0 0 0 0 0 0 0 0 0 0 0 0 0 0 0 0 0 0 0 0 0 0 0 0 0 0 0 0 0 0 0 0 0 0 0
0 0 0 0 0 0 0 0 0 0 0 0 0 0 0 0 0 0 0 0 0 0 0 0 0 0 0 0 0 0 0 0 0 0 0 0 0 0 0 0 0 0 0
0 0 0 0 0 0 0 0 0 0 0 0 0 0 0 0 0 0 0 0 0 0 0 0 0 0 0 0 0 0 0 0 0 0 0 0 0 0 0 0 0 0 0
0 0 0 0 0 0 0 0 0 0 0 0 0 0 0 0 0 0 0 0 0 0 0 0 0 0 0 0 0 0 0 0 0 0 0 0 0 0 0 0 0 0 0
0 0 0 0 0 0 0 0 0 0 0 0 0 0 0 0 0 0 0 0 0 0 0 0 0 0 0 0 0 0 0 0 0 0 0 0 0 0 0 0 0 0 0
0 0 0 0 0 0 0 0 0 0 0 0 0 0 0 0 0 0 0 0 0 0 0 0 0 0 0 0 0 0 0 0 0 0 0 0 0 0 0 0 0 0 0
0 0 0 0 0 0 0 0 0 0 0 0 0 0 0 0 0 0 0 0 0 0 0 0 0 0 0 0 0 0 0 0 0 0 0 0 0 0 0 0 0 0 0
0 0 0 0 0 0 0 0 0 0 0 0 0 0 0 0 0 0 0 0 0 0 0 0 0 0 0 0 0 0 0 0 0 0 0 0 0 0 0 0 0 0 0
0 0 0 0 0 0 0 0 0 0 0 0 0 0 0 0 0 0 0 0 0 0 0 0 0 0 0 0 0 0 0 0 0 0 0 0 0 0 0 0 0 0 0
0 0 0 0 0 0 0 0 0 0 0 0 0 0 0 0 0 0 0 0 0 0 0 0 0 0 0 0 0 0 0 0 0 0 0 0 0 0 0 0 0 0 0
0 0 0 0 0 0 0 0 0 0 0 0 0 0 0 0 0 0 0 0 0 0 0 0 0 0 0 0 0 0 0 0 0 0 0 0 0 0 0 0 0 0 0
0 0 0 0 0 0 0 0 0 0 0 0 0 0 0 0 0 0 0 0 0 0 0 0 0 0 0 0 0 0 0 0 0 0 0 0 0 0 0 0 0 0 0
0 0 0 0 0 0 0 0 0 0 0 0 0 0 0 0 0 0 0 0 0 0 0 0 0 0 0 0 0 0 0 0 0 0 0 0 0 0 0 0 0 0 0
0 0 0 0 0 0 0 0 0 0 0 0 0 0 0 0 0 0 0 0 0 0 0 0 0 0 0 0 0 0 0 0 0 0 0 0 0 0 0 0 0 0 0
0 0 0 0 0 0 0 0 0 0 0 0 0 0 0 0 0 0 0 0 0 0 0 0 0 0 0 0 0 0 0 0 0 0 0 0 0 0 0 0 0 0 0
Wind_Speed
7 10 19 18 17 16 15 14 12 11 10 9 9 9 8 9 8 7 6 5 5 5 5 5 5 4 4 5 6 6 5 5 4 4 5 5 5 4 2 1 2 2 1
12 12 19 18 17 16 15 14 12 11 10 9 9 8 8 8 8 7 6 5 4 4 5 6 6 6 5 7 6 5 4 3 2 3 4 4 6 7 5 2 1 1 1
15 13 16 17 17 16 15 14 12 11 10 10 9 9 9 8 8 7 6 5 4 3 3 4 5 6 6 5 5 3 2 1 2 4 5 3 5 8 7 6 4 3 3
15 12 12 16 17 16 15 14 12 11 10 10 10 9 9 8 8 7 6 5 4 3 3 3 3 4 4 3 2 1 1 2 4 5 3 4 5 8 7 8 7 7 6
11 10 12 17 17 17 15 14 12 11 10 10 10 9 8 8 7 7 5 4 3 2 2 1 1 1 2 2 2 3 4 5 4 5 4 4 4 8 8 9 8 7 8
10 9 12 17 17 16 15 14 12 11 10 10 9 8 8 8 7 6 5 4 3 2 1 0 1 1 2 4 5 6 7 6 4 3 4 5 4 10 11 10 8 8 9
10 8 12 17 17 17 16 14 13 12 11 10 9 8 7 7 6 6 6 5 3 2 1 2 2 3 4 5 6 7 8 6 4 3 4 4 6 12 12 11 11 10 11
12 10 11 16 16 16 16 15 13 12 11 10 9 8 7 6 6 6 7 6 4 3 3 3 4 5 6 6 8 8 8 7 6 4 5 5 10 14 14 14 13 13 13
10 10 8 9 11 14 14 14 13 12 11 10 9 7 5 5 5 6 7 7 6 5 5 5 6 7 8 9 10 10 9 9 6 4 7 5 11 14 14 15 15 14 14
8 9 9 8 8 8 9 13 12 11 10 10 8 7 7 6 5 5 6 7 8 7 7 7 8 9 10 10 11 12 11 10 6 6 5 7 15 15 16 16 16 16 15
8 8 9 9 8 8 8 10 10 11 10 9 7 8 7 3 3 3 6 8 9 10 9 9 9 10 10 10 12 12 9 4 5 5 5 12 16 16 16 17 16 16 16
11 10 9 11 10 9 8 6 5 5 5 5 4 5 4 3 3 4 7 10 10 10 9 10 10 10 8 4 7 9 4 5 4 4 6 15 17 17 17 16 15 16 17
11 12 12 11 11 10 6 5 4 3 4 4 5 5 3 2 2 2 2 3 4 5 4 5 5 4 3 3 4 4 4 4 3 4 6 13 15 17 17 17 15 14 16
8 11 13 12 11 10 8 6 5 4 4 4 5 5 3 2 2 1 1 1 1 1 2 2 2 3 4 4 4 4 4 3 3 3 4 10 13 15 17 17 17 16 16
9 10 11 12 12 10 8 6 6 5 5 4 3 4 4 3 2 2 1 1 1 1 2 2 3 4 4 5 5 5 5 5 4 4 4 10 13 15 16 16 16 17 17
8 9 8 10 11 10 8 6 5 5 4 3 3 4 5 4 4 4 4 4 4 3 3 4 4 4 4 4 6 6 5 5 5 6 5 7 12 15 16 17 18 19 19
4 5 6 8 9 10 8 7 5 4 5 4 4 5 7 6 6 5 5 5 4 4 5 4 5 4 5 6 6 6 5 6 6 6 6 4 6 10 17 19 20 20 20
4 4 5 6 8 8 7 6 5 6 7 6 6 7 9 9 8 7 6 5 5 5 5 4 5 4 5 5 5 5 5 5 6 5 4 5 4 5 11 19 20 21 21
4 5 5 7 9 10 10 9 9 9 9 7 7 7 9 10 9 8 6 5 5 5 5 5 4 4 4 6 5 5 6 4 4 4 5 5 5 5 5 13 19 20 21
4 5 6 8 11 13 11 10 9 10 8 7 7 8 10 9 9 7 6 6 5 5 5 4 4 4 3 5 5 6 6 4 2 3 5 5 5 7 8 10 9 13 19
5 6 7 10 11 11 10 8 8 7 7 7 7 9 10 9 9 8 6 6 5 5 5 5 4 4 4 4 4 5 5 4 3 4 6 5 6 8 10 10 8 7 8
6 8 9 10 9 9 8 7 6 7 6 6 6 8 9 9 8 7 6 5 5 4 6 6 5 3 3 4 3 3 5 6 5 7 5 4 6 6 8 10 8 7 7
7 8 10 10 11 11 11 11 10 8 5 5 6 6 7 8 7 7 6 5 5 5 4 4 4 4 3 3 3 3 3 5 6 4 4 4 5 6 5 6 8 7 9
7 9 11 11 12 11 11 12 12 9 7 4 4 5 6 7 7 6 6 5 5 4 4 4 4 3 3 3 3 1 1 3 4 7 5 4 6 7 7 8 7 7 7
9 10 10 12 11 9 9 11 12 9 7 6 6 7 6 5 6 6 6 5 4 4 4 4 4 4 2 2 2 3 2 3 4 5 9 7 7 6 6 7 6 6 7
9 10 10 12 11 10 10 10 12 12 11 9 7 6 4 3 4 5 5 4 4 3 3 3 3 4 3 3 3 3 3 3 4 5 9 12 9 6 7 7 7 6 6
Wind_Direction
160 164 157 155 151 145 141 135 129 125 124 125 120 113 113 111 105 99 93 87 78 66 62 59 57 75 111 122 115 105 94 80 59 32 6 347 333 322 319 51 30 344 185
153 162 159 158 154 150 145 139 134 131 131 132 129 124 124 118 112 107 103 98 93 75 57 52 52 61 88 105 107 111 106 93 47 6 346 338 321 300 271 239 255 286 203
151 161 161 161 157 153 149 144 142 141 140 140 136 135 131 127 122 117 112 106 100 89 61 48 45 55 73 92 99 106 100 53 349 340 340 336 314 296 252 235 237 241 239
153 159 162 163 160 156 153 151 150 149 149 149 144 141 138 136 132 127 119 109 102 95 77 60 51 52 56 65 69 32 333 337 337 331 340 327 319 301 240 232 240 243 242
153 158 164 164 163 160 158 158 156 155 156 155 150 150 149 147 145 139 127 117 112 106 90 63 46 35 16 353 327 310 307 314 326 334 327 322 320 303 257 244 252 256 258
155 158 165 166 166 164 163 163 162 160 161 162 160 160 162 163 158 151 146 142 138 137 131 69 314 308 303 301 298 297 299 308 319 313 305 305 304 303 281 265 261 260 262
158 163 168 169 169 168 167 167 166 165 166 168 167 169 172 171 168 164 165 167 167 184 236 275 289 289 292 291 290 292 296 298 286 270 276 284 291 297 287 276 272 269 267
160 164 170 173 171 171 171 171 170 170 172 172 175 177 178 181 175 177 181 188 195 217 251 278 287 286 285 285 283 285 287 282 281 268 265 268 278 284 280 278 277 275 273
161 162 168 173 173 172 172 173 174 175 176 177 181 181 170 166 180 191 198 210 225 241 256 267 275 280 283 284 285 286 284 278 270 255 263 263 274 277 275 274 274 271 269
163 168 170 171 172 172 173 177 177 177 178 181 183 175 172 182 201 217 220 230 241 250 258 266 272 277 279 282 283 283 282 282 265 257 257 265 272 273 273 272 270 268 267
178 180 176 175 176 174 174 183 180 180 184 185 188 190 191 202 223 247 243 241 245 251 257 266 273 277 279 279 282 283 287 269 264 262 258 265 271 274 273 271 269 266 266
193 192 184 182 181 177 182 179 179 183 188 189 193 201 199 204 229 248 251 242 242 249 260 273 281 285 284 282 287 291 281 277 272 267 268 274 282 284 283 282 273 267 266
193 191 190 188 184 180 183 173 180 184 188 198 204 208 203 207 244 261 264 262 260 267 274 287 298 298 292 286 287 290 286 284 273 273 279 290 301 305 307 308 302 289 280
197 194 191 190 186 185 182 179 180 185 190 197 207 207 189 183 200 207 214 262 273 284 291 298 307 320 327 324 317 315 315 311 302 296 299 315 326 329 327 323 318 312 305
204 201 189 186 186 183 178 180 182 186 188 191 186 185 170 157 155 127 89 51 20 11 12 14 8 6 7 3 1 355 346 341 336 336 327 332 342 347 346 342 338 335 332
202 202 188 181 181 174 174 174 172 172 166 153 148 144 136 125 110 89 68 52 40 37 43 46 32 23 17 7 358 348 341 341 341 341 338 345 356 4 9 10 9 4 358
176 184 179 175 166 165 164 160 147 142 130 116 106 100 99 94 89 82 68 53 40 36 42 43 26 26 21 7 349 340 338 340 342 339 346 0 357 10 16 13 9 4 359
150 146 158 158 147 146 137 125 111 103 99 93 89 85 84 84 83 77 67 54 42 39 34 38 22 17 13 358 338 326 327 330 336 344 4 8 0 10 12 11 8 2 357
153 146 138 134 131 123 111 103 95 92 89 87 85 83 81 78 77 76 65 52 46 44 32 27 27 19 5 349 324 315 315 322 331 6 6 5 5 11 14 4 2 355 353
136 133 126 121 121 118 110 103 96 87 84 81 79 80 79 75 71 72 65 49 45 45 30 19 13 10 3 340 321 316 304 313 338 3 359 1 3 10 10 0 354 347 351
117 122 124 124 127 126 123 117 110 101 95 85 79 77 75 73 68 65 61 49 45 48 36 22 8 2 352 346 341 321 316 330 354 343 353 355 6 6 355 347 341 335 342
126 123 122 125 124 121 117 111 108 109 97 89 82 72 69 68 64 66 62 56 46 44 33 26 21 7 348 4 350 333 337 333 343 336 323 349 359 347 334 333 323 327 335
128 129 125 122 118 118 117 113 110 101 91 79 74 69 63 67 65 64 62 60 49 46 32 19 24 24 350 337 4 40 1 317 312 299 315 337 333 321 317 316 311 322 321
130 122 120 120 120 121 122 126 128 125 119 111 105 90 72 64 64 61 58 56 47 39 28 7 22 7 359 344 337 27 245 253 295 309 307 307 309 310 301 305 305 297 301
127 121 119 117 115 113 113 118 116 112 111 110 102 92 78 62 58 57 56 49 37 25 16 9 360 355 346 329 319 309 296 268 240 270 295 305 304 294 292 288 287 287 291
121 118 119 116 111 110 109 109 117 121 123 119 112 107 89 70 51 44 49 39 26 13 359 352 348 346 336 327 316 308 309 305 307 292 297 305 302 292 285 284 287 286 289